When you browse on this site, cookies collect data to enhance your experience and personalize the content and advertising you see.
Visit our Privacy Policy to learn more. By continuing to use the site, you agree to this use of cookies and data.
  • In France
  • List of Countries
  • For 7 days
  • Water Temperature
  • Satellite Maps
  • Weather Map
  • Weather Widgets
  • user-avatar
    Login

    Hourly Weather Oruro

    Today, 22 March, Friday

    Time Temperature Precipitation Wind Pressure Humidity
    00:00 +10°C° 0 mm 4 mps 476 mmHg 68%
    01:00 +8°C° 0 mm 4 mps 476 mmHg 70%
    02:00 +7°C° 0 mm 4 mps 476 mmHg 73%
    03:00 +8°C° 0 mm 3 mps 475 mmHg 73%
    04:00 +8°C° 0 mm 3 mps 475 mmHg 74%
    05:00 +7°C° 0 mm 2 mps 475 mmHg 74%
    06:00 +8°C° 0 mm 2 mps 475 mmHg 71%
    07:00 +8°C° 0 mm 2 mps 476 mmHg 68%
    08:00 +9°C° 0 mm 2 mps 477 mmHg 65%
    09:00 +10°C° 0 mm 2 mps 478 mmHg 56%
    10:00 +13°C° 0 mm 2 mps 479 mmHg 48%
    11:00 +15°C° 0 mm 2 mps 480 mmHg 40%
    12:00 +16°C° 0 mm 1 mps 480 mmHg 36%
    13:00 +18°C° 0 mm 1 mps 480 mmHg 32%
    14:00 +19°C° 0 mm 1 mps 479 mmHg 28%
    15:00 +18°C° 0 mm 2 mps 479 mmHg 30%
    16:00 +18°C° 0 mm 4 mps 479 mmHg 32%
    17:00 +16°C° 0 mm 5 mps 478 mmHg 34%
    18:00 +15°C° 0 mm 6 mps 478 mmHg 41%
    19:00 +12°C° 0 mm 7 mps 477 mmHg 49%
    20:00 +11°C° 0 mm 7 mps 477 mmHg 56%
    21:00 +10°C° 0 mm 7 mps 477 mmHg 61%
    22:00 +9°C° 0 mm 6 mps 477 mmHg 66%
    23:00 +8°C° 0 mm 6 mps 477 mmHg 71%

    Tomorrow, 23 March, Saturday

    Time Temperature Precipitation Wind Pressure Humidity
    00:00 +8°C° 0 mm 6 mps 477 mmHg 70%
    01:00 +7°C° 0 mm 5 mps 476 mmHg 70%
    02:00 +7°C° 0 mm 5 mps 476 mmHg 70%
    03:00 +6°C° 0 mm 4 mps 476 mmHg 71%
    04:00 +6°C° 0 mm 4 mps 475 mmHg 72%
    05:00 +5°C° 0 mm 3 mps 475 mmHg 73%
    06:00 +7°C° 0 mm 3 mps 475 mmHg 70%
    07:00 +7°C° 0 mm 3 mps 476 mmHg 67%
    08:00 +7°C° 0 mm 3 mps 477 mmHg 64%
    09:00 +9°C° 0 mm 2 mps 478 mmHg 56%
    10:00 +12°C° 0 mm 2 mps 479 mmHg 48%
    11:00 +14°C° 0 mm 2 mps 480 mmHg 39%
    12:00 +15°C° 0 mm 2 mps 480 mmHg 36%
    13:00 +16°C° 0 mm 1 mps 480 mmHg 32%
    14:00 +19°C° 0 mm 1 mps 480 mmHg 28%
    15:00 +18°C° 0 mm 2 mps 480 mmHg 29%
    16:00 +17°C° 0 mm 3 mps 479 mmHg 30%
    17:00 +17°C° 0 mm 4 mps 479 mmHg 31%
    18:00 +15°C° 0 mm 5 mps 478 mmHg 37%
    19:00 +13°C° 0 mm 6 mps 478 mmHg 44%
    20:00 +11°C° 0 mm 7 mps 477 mmHg 50%
    21:00 +10°C° 0 mm 7 mps 477 mmHg 54%
    22:00 +9°C° 0 mm 6 mps 477 mmHg 58%
    23:00 +8°C° 0 mm 5 mps 477 mmHg 61%

    Day after tomorrow, 24 March, Sunday

    Time Temperature Precipitation Wind Pressure Humidity
    00:00 +8°C° 0 mm 5 mps 477 mmHg 63%
    01:00 +8°C° 0 mm 4 mps 476 mmHg 64%
    02:00 +7°C° 0 mm 4 mps 476 mmHg 66%
    03:00 +8°C° 0 mm 3 mps 476 mmHg 66%
    04:00 +8°C° 0 mm 3 mps 476 mmHg 65%
    05:00 +8°C° 0 mm 3 mps 476 mmHg 65%
    06:00 +8°C° 0 mm 2 mps 476 mmHg 63%
    07:00 +8°C° 0 mm 2 mps 477 mmHg 62%
    08:00 +9°C° 0 mm 2 mps 477 mmHg 60%
    09:00 +10°C° 0 mm 2 mps 478 mmHg 54%
    10:00 +13°C° 0 mm 2 mps 479 mmHg 48%
    11:00 +14°C° 0 mm 2 mps 479 mmHg 42%
    12:00 +15°C° 0 mm 2 mps 480 mmHg 38%
    13:00 +17°C° 0 mm 3 mps 480 mmHg 34%
    14:00 +18°C° 0 mm 3 mps 480 mmHg 30%
    15:00 +17°C° 0 mm 4 mps 479 mmHg 32%
    16:00 +16°C° 0 mm 5 mps 479 mmHg 34%
    17:00 +15°C° 0 mm 6 mps 478 mmHg 36%
    18:00 +14°C° 0.1 mm 7 mps 478 mmHg 43%
    19:00 +11°C° 0.1 mm 8 mps 477 mmHg 50%
    20:00 +10°C° 0.1 mm 9 mps 477 mmHg 57%
    21:00 +9°C° 0 mm 8 mps 477 mmHg 60%
    22:00 +9°C° 0 mm 7 mps 477 mmHg 63%
    23:00 +8°C° 0 mm 7 mps 477 mmHg 65%

    25 March, Monday

    Time Temperature Precipitation Wind Pressure Humidity
    00:00 +8°C° 0 mm 6 mps 476 mmHg 66%
    01:00 +7°C° 0 mm 5 mps 476 mmHg 67%
    02:00 +7°C° 0 mm 4 mps 476 mmHg 68%
    03:00 +8°C° 0 mm 3 mps 476 mmHg 69%
    04:00 +8°C° 0 mm 3 mps 475 mmHg 70%
    05:00 +8°C° 0 mm 2 mps 475 mmHg 71%
    06:00 +8°C° 0 mm 3 mps 476 mmHg 70%
    07:00 +8°C° 0 mm 3 mps 476 mmHg 69%
    08:00 +8°C° 0 mm 3 mps 477 mmHg 68%
    09:00 +8°C° 0.6 mm 4 mps 477 mmHg 68%
    10:00 +8°C° 0.6 mm 4 mps 477 mmHg 67%
    11:00 +8°C° 0.6 mm 4 mps 477 mmHg 66%
    12:00 +10°C° 0.7 mm 3 mps 477 mmHg 65%
    13:00 +10°C° 0.7 mm 3 mps 477 mmHg 63%
    14:00 +10°C° 0.7 mm 3 mps 477 mmHg 61%
    15:00 +10°C° 0.8 mm 2 mps 476 mmHg 63%
    16:00 +10°C° 0.8 mm 2 mps 476 mmHg 65%
    17:00 +10°C° 0.8 mm 1 mps 476 mmHg 67%
    18:00 +9°C° 0.5 mm 2 mps 476 mmHg 70%
    19:00 +9°C° 0.5 mm 2 mps 476 mmHg 74%
    20:00 +8°C° 0.5 mm 2 mps 476 mmHg 77%
    21:00 +8°C° 0.2 mm 2 mps 476 mmHg 77%
    22:00 +8°C° 0.2 mm 3 mps 476 mmHg 77%
    23:00 +8°C° 0.2 mm 3 mps 476 mmHg 77%

    26 March, Tuesday

    Time Temperature Precipitation Wind Pressure Humidity
    00:00 +8°C° 0.2 mm 3 mps 476 mmHg 77%
    01:00 +8°C° 0.2 mm 3 mps 476 mmHg 77%
    02:00 +8°C° 0.2 mm 3 mps 475 mmHg 77%
    03:00 +7°C° 0.1 mm 3 mps 475 mmHg 77%
    04:00 +7°C° 0.1 mm 3 mps 475 mmHg 78%
    05:00 +7°C° 0.1 mm 3 mps 475 mmHg 78%
    06:00 +7°C° 0 mm 3 mps 475 mmHg 75%
    07:00 +7°C° 0 mm 3 mps 476 mmHg 72%
    08:00 +8°C° 0 mm 3 mps 476 mmHg 70%
    09:00 +8°C° 0 mm 4 mps 477 mmHg 64%
    10:00 +11°C° 0 mm 4 mps 478 mmHg 57%
    11:00 +12°C° 0 mm 5 mps 479 mmHg 51%
    12:00 +13°C° 0.1 mm 5 mps 479 mmHg 51%
    13:00 +13°C° 0.1 mm 6 mps 479 mmHg 50%
    14:00 +12°C° 0.1 mm 7 mps 478 mmHg 49%
    15:00 +12°C° 0.2 mm 7 mps 478 mmHg 51%
    16:00 +12°C° 0.2 mm 7 mps 477 mmHg 53%
    17:00 +11°C° 0.2 mm 7 mps 477 mmHg 54%
    18:00 +10°C° 0 mm 8 mps 477 mmHg 59%
    19:00 +9°C° 0 mm 8 mps 476 mmHg 63%
    20:00 +6°C° 0 mm 8 mps 476 mmHg 68%
    21:00 +6°C° 0 mm 7 mps 476 mmHg 69%
    22:00 +5°C° 0 mm 6 mps 476 mmHg 70%
    23:00 +6°C° 0 mm 5 mps 476 mmHg 72%

    27 March, Wednesday

    Time Temperature Precipitation Wind Pressure Humidity
    00:00 +6°C° 0 mm 5 mps 476 mmHg 71%
    01:00 +6°C° 0 mm 4 mps 476 mmHg 71%
    02:00 +6°C° 0 mm 4 mps 476 mmHg 70%
    03:00 +7°C° 0 mm 3 mps 476 mmHg 71%
    04:00 +7°C° 0 mm 3 mps 476 mmHg 72%
    05:00 +6°C° 0 mm 2 mps 475 mmHg 73%
    06:00 +7°C° 0 mm 2 mps 476 mmHg 72%
    07:00 +7°C° 0 mm 3 mps 477 mmHg 70%
    08:00 +7°C° 0 mm 3 mps 477 mmHg 69%
    09:00 +9°C° 0 mm 3 mps 478 mmHg 63%
    10:00 +10°C° 0 mm 3 mps 479 mmHg 57%
    11:00 +12°C° 0 mm 4 mps 480 mmHg 52%
    12:00 +12°C° 0 mm 4 mps 479 mmHg 49%
    13:00 +13°C° 0 mm 5 mps 479 mmHg 47%
    14:00 +14°C° 0 mm 5 mps 479 mmHg 45%
    15:00 +14°C° 0 mm 6 mps 479 mmHg 46%
    16:00 +14°C° 0 mm 6 mps 478 mmHg 46%
    17:00 +14°C° 0 mm 7 mps 478 mmHg 47%
    18:00 +11°C° 0 mm 7 mps 478 mmHg 53%
    19:00 +10°C° 0 mm 7 mps 477 mmHg 58%
    20:00 +8°C° 0 mm 7 mps 477 mmHg 64%
    21:00 +8°C° 0 mm 6 mps 477 mmHg 67%
    22:00 +7°C° 0 mm 6 mps 477 mmHg 69%
    23:00 +7°C° 0 mm 5 mps 477 mmHg 71%
    Show more